GW0701 Weather Reports


Display with metric or nautical units.
time (UTC)temp
F
wind
direction
speed
MPH
gust
MPH
rain 1hr
in
rain 24hr
in
rain mn
in
humidity
%
barometer
mb
20260831040227 80 192 4.0 5.0 0.00 0.00 0.00 75 1013.1
20260831035724 80 191 5.0 7.0 0.00 0.00 0.00 75 1013.3
20260831035224 81 184 6.0 8.0 0.00 0.00 0.00 74 1013.4
20260831034723 81 194 6.0 8.0 0.00 0.00 0.00 74 1013.2
20260831034219 81 209 2.0 2.0 0.00 0.00 0.00 75 1013.3
20260831033715 81 193 3.0 3.0 0.00 0.00 0.00 75 1013.2
20260831033214 81 218 4.0 5.0 0.00 0.00 0.00 75 1013.4
20260831032709 81 187 8.0 10.0 0.00 0.00 0.00 75 1013.2
20260831032204 81 186 5.0 6.0 0.00 0.00 0.00 76 1013.4
20260831031659 81 189 3.0 3.0 0.00 0.00 0.00 76 1013.2
20260831031159 81 197 5.0 6.0 0.00 0.00 0.00 76 1013.2
20260831030658 81 180 5.0 6.0 0.00 0.00 0.00 76 1013.3
20260831030157 81 193 3.0 3.0 0.00 0.00 0.00 77 1013.3
20260831025655 81 210 5.0 6.0 0.00 0.00 0.00 77 1013.4
20260831025150 81 203 2.0 2.0 0.00 0.00 0.00 77 1013.3
20260831024647 81 122 2.0 2.0 0.00 0.00 0.00 78 1013.3
20260831024145 81 122 2.0 3.0 0.00 0.00 0.00 78 1013.2
20260831023644 81 200 3.0 3.0 0.00 0.00 0.00 78 1013.2
20260831023138 81 222 1.0 2.0 0.00 0.00 0.00 78 1013.1
20260831022633 81 209 1.0 2.0 0.00 0.00 0.00 77 1013.1
20260831022128 81 190 4.0 5.0 0.00 0.00 0.00 78 1012.9
20260831021627 81 155 3.0 3.0 0.00 0.00 0.00 77 1012.8
20260831021122 81 144 3.0 5.0 0.00 0.00 0.00 77 1012.8
20260831020618 81 227 2.0 2.0 0.00 0.00 0.00 78 1012.8
20260831020113 81 146 3.0 5.0 0.00 0.00 0.00 77 1012.6
20260831015608 81 109 2.0 2.0 0.00 0.00 0.00 78 1012.6
20260831015103 82 175 2.0 3.0 0.00 0.00 0.00 77 1012.7
20260831014558 82 143 3.0 3.0 0.00 0.00 0.00 77 1012.7
20260831014053 82 156 4.0 5.0 0.00 0.00 0.00 77 1012.6
20260831013549 82 135 3.0 5.0 0.00 0.00 0.00 76 1012.6
20260831013043 82 135 1.0 1.0 0.00 0.00 0.00 75 1012.4
20260831012543 83 161 0.0 1.0 0.00 0.00 0.00 75 1012.4
20260831012038 83 177 1.0 1.0 0.00 0.00 0.00 73 1012.4
20260831011538 84 203 0.0 0.0 0.00 0.00 0.00 72 1012.7
20260831011033 84 169 5.0 6.0 0.00 0.00 0.00 70 1012.5
20260831010528 84 207 3.0 5.0 0.00 0.00 0.00 70 1012.4
20260831010025 84 140 3.0 5.0 0.00 0.00 0.00 70 1012.3
20260831005520 84 178 2.0 2.0 0.00 0.00 0.00 70 1012.3
20260831005019 85 163 2.0 2.0 0.00 0.00 0.00 70 1012.3
20260831004515 85 207 1.0 1.0 0.00 0.00 0.00 71 1012.2
20260831004010 85 165 1.0 1.0 0.00 0.00 0.00 70 1012.1
20260831003506 85 166 3.0 3.0 0.00 0.00 0.00 70 1012.2
20260831003001 85 195 1.0 1.0 0.00 0.00 0.00 70 1012.1
20260831002500 85 177 3.0 3.0 0.00 0.00 0.00 71 1012.1
20260831001955 85 157 2.0 2.0 0.00 0.00 0.00 71 1012.2
20260831001450 86 187 1.0 2.0 0.00 0.00 0.00 71 1012.3
20260831000948 86 153 3.0 5.0 0.00 0.00 0.00 71 1012.1
20260831000443 86 196 2.0 2.0 0.00 0.00 0.00 70 1012.1
20260830235941 86 218 0.0 1.0 0.00 0.00 0.00 70 1012.1
20260830235437 86 158 2.0 2.0 0.00 0.00 0.00 70 1012.0
20260830234932 86 215 2.0 3.0 0.00 0.00 0.00 70 1011.9
20260830234427 87 187 3.0 3.0 0.00 0.00 0.00 69 1012.2
20260830233923 87 176 3.0 3.0 0.00 0.00 0.00 68 1012.2
20260830233418 87 198 1.0 1.0 0.00 0.00 0.00 68 1012.0
20260830232913 87 183 3.0 5.0 0.00 0.00 0.00 67 1012.1
20260830232409 87 216 4.0 5.0 0.00 0.00 0.00 67 1012.0
20260830231906 87 203 2.0 3.0 0.00 0.00 0.00 67 1011.9
20260830231401 87 186 3.0 3.0 0.00 0.00 0.00 67 1012.1
20260830230900 87 143 5.0 6.0 0.00 0.00 0.00 68 1012.0
20260830230355 87 195 4.0 6.0 0.00 0.00 0.00 69 1012.1
20260830225855 87 194 7.0 8.0 0.00 0.00 0.00 69 1011.9
20260830225350 87 202 3.0 3.0 0.00 0.00 0.00 69 1011.9
20260830224844 87 179 2.0 2.0 0.00 0.00 0.00 69 1011.8
20260830224338 88 193 3.0 3.0 0.00 0.00 0.00 69 1012.0
20260830223836 88 200 2.0 2.0 0.00 0.00 0.00 68 1012.1
20260830223332 88 189 3.0 3.0 0.00 0.00 0.00 69 1012.0
20260830222831 88 199 3.0 5.0 0.00 0.00 0.00 69 1011.9
20260830222326 87 172 3.0 3.0 0.00 0.00 0.00 69 1012.0
20260830221821 87 174 3.0 5.0 0.00 0.00 0.00 69 1012.0
20260830221318 87 183 3.0 5.0 0.00 0.00 0.00 69 1012.1
20260830220818 87 182 3.0 3.0 0.00 0.00 0.00 68 1012.3
20260830220318 88 180 4.0 6.0 0.00 0.00 0.00 68 1012.1
20260830215816 88 189 4.0 6.0 0.00 0.00 0.00 66 1012.2
20260830215311 89 167 3.0 3.0 0.00 0.00 0.00 67 1012.2
20260830214806 89 200 5.0 6.0 0.00 0.00 0.00 65 1012.4
20260830214301 90 139 3.0 3.0 0.00 0.00 0.00 64 1012.5
20260830213800 89 201 2.0 2.0 0.00 0.00 0.00 63 1012.6
20260830213255 89 209 3.0 3.0 0.00 0.00 0.00 63 1012.6
20260830212751 89 191 6.0 8.0 0.00 0.00 0.00 61 1012.6
20260830212247 90 183 5.0 6.0 0.00 0.00 0.00 60 1012.6
20260830211746 90 206 5.0 5.0 0.00 0.00 0.00 61 1012.8
20260830211245 91 204 3.0 3.0 0.00 0.00 0.00 61 1012.8
20260830210741 90 176 3.0 5.0 0.00 0.00 0.00 61 1012.6
20260830210240 91 180 5.0 7.0 0.00 0.00 0.00 60 1012.9
20260830205738 90 229 2.0 3.0 0.00 0.00 0.00 61 1012.7
20260830205233 90 183 5.0 6.0 0.00 0.00 0.00 63 1013.0
20260830204728 89 191 6.0 8.0 0.00 0.00 0.00 64 1012.9
20260830204227 90 194 9.0 9.0 0.00 0.00 0.00 63 1013.0
20260830203723 90 247 1.0 2.0 0.00 0.00 0.00 64 1013.1
20260830203219 89 172 7.0 8.0 0.00 0.00 0.00 63 1012.9
20260830202718 89 204 6.0 7.0 0.00 0.00 0.00 65 1013.1
20260830202214 88 187 3.0 5.0 0.00 0.00 0.00 65 1013.1
20260830201713 89 203 3.0 3.0 0.00 0.00 0.00 66 1013.1
20260830201209 88 187 3.0 5.0 0.00 0.00 0.00 66 1013.3
20260830200704 87 165 3.0 5.0 0.00 0.00 0.00 65 1013.4
20260830200203 87 192 5.0 7.0 0.00 0.00 0.00 66 1013.4
20260830195658 87 186 2.0 2.0 0.00 0.00 0.00 68 1013.4
20260830195156 87 195 5.0 7.0 0.00 0.00 0.00 67 1013.5
20260830194655 86 203 3.0 3.0 0.00 0.00 0.00 68 1013.2
20260830194156 86 181 3.0 5.0 0.00 0.00 0.00 69 1013.4
20260830193650 86 186 3.0 5.0 0.00 0.00 0.00 68 1013.2
20260830193144 86 166 2.0 2.0 0.00 0.00 0.00 71 1013.4
20260830192640 86 191 2.0 2.0 0.00 0.00 0.00 70 1013.3
20260830192134 86 223 1.0 1.0 0.00 0.00 0.00 68 1013.5
20260830191625 86 212 5.0 5.0 0.00 0.00 0.00 69 1013.5
20260830191120 86 195 3.0 5.0 0.00 0.00 0.00 70 1013.6
20260830190615 86 207 5.0 6.0 0.00 0.00 0.00 69 1013.4
20260830190109 87 179 4.0 5.0 0.00 0.00 0.00 68 1013.5
20260830185603 87 177 5.0 6.0 0.00 0.00 0.00 68 1013.5
20260830185059 86 205 2.0 2.0 0.00 0.00 0.00 68 1013.4
20260830184558 86 224 4.0 6.0 0.00 0.00 0.00 68 1013.7
20260830184052 85 177 4.0 5.0 0.00 0.00 0.00 69 1013.5
20260830183547 86 212 4.0 7.0 0.00 0.00 0.00 67 1013.5
20260830183043 86 176 4.0 6.0 0.00 0.00 0.00 67 1013.9
20260830182538 86 195 4.0 5.0 0.00 0.00 0.00 66 1013.6
20260830182034 85 191 5.0 5.0 0.00 0.00 0.00 66 1013.6
20260830181531 86 173 9.0 9.0 0.00 0.00 0.00 67 1014.2
20260830181030 86 173 4.0 5.0 0.00 0.00 0.00 65 1014.2
20260830180529 86 200 6.0 7.0 0.00 0.00 0.00 66 1014.0
20260830180028 86 201 7.0 9.0 0.00 0.00 0.00 65 1013.9
20260830175528 87 223 2.0 3.0 0.00 0.00 0.00 65 1013.8
20260830175023 86 197 5.0 6.0 0.00 0.00 0.00 65 1013.9
20260830174519 86 201 3.0 3.0 0.00 0.00 0.00 66 1013.9
20260830174014 86 218 4.0 6.0 0.00 0.00 0.00 65 1013.9
20260830173509 88 230 1.0 2.0 0.00 0.00 0.00 63 1013.9
20260830173010 87 180 3.0 5.0 0.00 0.00 0.00 63 1013.8
20260830172507 87 185 5.0 6.0 0.00 0.00 0.00 64 1013.8
20260830172002 87 192 3.0 3.0 0.00 0.00 0.00 65 1013.8
20260830171457 85 226 3.0 5.0 0.00 0.00 0.00 65 1013.7
20260830170957 85 236 5.0 6.0 0.00 0.00 0.00 65 1013.8
20260830170452 84 241 3.0 3.0 0.00 0.00 0.00 68 1013.8
20260830165950 84 216 2.0 3.0 0.00 0.00 0.00 68 1013.8
20260830165447 84 187 5.0 6.0 0.00 0.00 0.00 68 1013.8
20260830164942 84 237 4.0 5.0 0.00 0.00 0.00 68 1014.0
20260830164438 84 213 3.0 3.0 0.00 0.00 0.00 68 1013.9
20260830163934 83 227 2.0 2.0 0.00 0.00 0.00 67 1013.8
20260830163430 83 178 5.0 6.0 0.00 0.00 0.00 67 1013.8
20260830162929 84 193 3.0 6.0 0.00 0.00 0.00 66 1013.9
20260830162426 83 201 4.0 5.0 0.00 0.00 0.00 65 1014.1
20260830161925 83 225 4.0 6.0 0.00 0.00 0.00 68 1014.0
20260830161425 84 208 3.0 5.0 0.00 0.00 0.00 68 1014.0
20260830160920 84 233 3.0 5.0 0.00 0.00 0.00 67 1014.2
20260830160417 83 184 4.0 6.0 0.00 0.00 0.00 65 1014.4
20260830155911 85 275 2.0 3.0 0.00 0.00 0.00 66 1014.3
20260830155408 83 222 5.0 7.0 0.00 0.00 0.00 64 1014.5
20260830154903 83 226 7.0 8.0 0.00 0.00 0.00 66 1014.4
20260830154358 83 226 3.0 5.0 0.00 0.00 0.00 65 1014.6
20260830153855 82 222 4.0 6.0 0.00 0.00 0.00 66 1014.6
20260830153350 82 207 5.0 6.0 0.00 0.00 0.00 66 1014.7
20260830152849 82 249 3.0 3.0 0.00 0.00 0.00 67 1014.6
20260830152344 81 228 4.0 5.0 0.00 0.00 0.00 67 1014.8
20260830151838 80 206 2.0 2.0 0.00 0.00 0.00 69 1014.6
20260830151337 80 238 3.0 5.0 0.00 0.00 0.00 70 1014.7
20260830150833 79 207 2.0 2.0 0.00 0.00 0.00 69 1015.0
20260830150332 80 250 3.0 3.0 0.00 0.00 0.00 69 1014.9
20260830145826 80 205 2.0 2.0 0.00 0.00 0.00 70 1014.5
20260830145322 80 221 2.0 2.0 0.00 0.00 0.00 69 1014.4
20260830144817 80 239 3.0 5.0 0.00 0.00 0.00 70 1014.1
20260830144313 81 222 2.0 3.0 0.00 0.00 0.00 67 1014.2
20260830143809 80 213 3.0 5.0 0.00 0.00 0.00 69 1014.2
20260830143308 80 230 3.0 3.0 0.00 0.00 0.00 67 1014.2
20260830142803 79 236 4.0 5.0 0.00 0.00 0.00 68 1014.1
20260830142258 79 180 3.0 3.0 0.00 0.00 0.00 69 1014.0
20260830141753 79 229 3.0 5.0 0.00 0.00 0.00 68 1013.9
20260830141248 78 210 3.0 5.0 0.00 0.00 0.00 69 1014.1
20260830140743 78 218 4.0 5.0 0.00 0.00 0.00 70 1013.8
20260830140238 77 239 3.0 6.0 0.00 0.00 0.00 71 1013.9
20260830135732 77 202 5.0 6.0 0.00 0.00 0.00 71 1013.9
20260830135228 77 215 3.0 3.0 0.00 0.00 0.00 71 1013.8
20260830134723 76 191 2.0 2.0 0.00 0.00 0.00 72 1014.1
20260830134218 76 226 3.0 5.0 0.00 0.00 0.00 72 1014.0
20260830133714 76 179 5.0 6.0 0.00 0.00 0.00 72 1013.9
20260830133210 76 213 6.0 7.0 0.00 0.00 0.00 72 1013.7
20260830132705 75 227 5.0 8.0 0.00 0.00 0.00 73 1013.9
20260830132201 75 176 3.0 5.0 0.00 0.00 0.00 74 1013.9
20260830131659 74 197 6.0 7.0 0.00 0.00 0.00 74 1014.0
20260830131159 74 189 6.0 7.0 0.00 0.00 0.00 75 1013.7
20260830130654 74 188 5.0 6.0 0.00 0.00 0.00 75 1013.9
20260830130154 74 182 5.0 6.0 0.00 0.00 0.00 75 1013.8
20260830125649 73 189 7.0 10.0 0.00 0.00 0.00 75 1014.0
20260830125144 73 225 4.0 6.0 0.00 0.00 0.00 76 1014.1
20260830124642 73 205 6.0 7.0 0.00 0.00 0.00 76 1014.1
20260830124137 73 198 5.0 6.0 0.00 0.00 0.00 76 1013.9
20260830123634 73 210 4.0 6.0 0.00 0.00 0.00 75 1013.9
20260830123130 73 234 5.0 7.0 0.00 0.00 0.00 74 1014.0
20260830122626 73 179 5.0 7.0 0.00 0.00 0.00 75 1013.8
20260830122122 73 180 5.0 6.0 0.00 0.00 0.00 76 1014.1
20260830121618 72 173 3.0 3.0 0.00 0.00 0.00 77 1014.1
20260830121117 72 193 1.0 2.0 0.00 0.00 0.00 78 1014.0
20260830120612 72 182 7.0 8.0 0.00 0.00 0.00 78 1013.8
20260830120108 71 180 4.0 6.0 0.00 0.00 0.00 79 1014.0
20260830115604 71 212 3.0 5.0 0.00 0.00 0.00 80 1014.0
20260830115059 71 212 4.0 5.0 0.00 0.00 0.00 81 1014.0
20260830114556 71 208 2.0 2.0 0.00 0.00 0.00 80 1014.0
20260830114055 71 210 2.0 2.0 0.00 0.00 0.00 81 1013.9
20260830113551 71 204 5.0 6.0 0.00 0.00 0.00 81 1014.1
20260830113046 71 194 3.0 5.0 0.00 0.00 0.00 82 1013.7
20260830112542 71 201 3.0 5.0 0.00 0.00 0.00 81 1014.0
20260830112038 71 203 3.0 5.0 0.00 0.00 0.00 82 1013.9
20260830111533 71 215 3.0 3.0 0.00 0.00 0.00 82 1013.9
20260830111030 71 197 3.0 3.0 0.00 0.00 0.00 82 1013.9
20260830110529 70 234 5.0 6.0 0.00 0.00 0.00 82 1013.7
20260830110025 70 204 2.0 3.0 0.00 0.00 0.00 84 1013.8
20260830105520 70 213 2.0 2.0 0.00 0.00 0.00 84 1013.8
20260830105016 70 225 3.0 3.0 0.00 0.00 0.00 84 1013.9
20260830104512 70 206 3.0 3.0 0.00 0.00 0.00 84 1013.9
20260830104008 70 226 2.0 2.0 0.00 0.00 0.00 84 1013.8
20260830103503 70 185 3.0 3.0 0.00 0.00 0.00 84 1013.9
20260830103001 70 203 4.0 5.0 0.00 0.00 0.00 84 1014.0
20260830102456 70 206 4.0 5.0 0.00 0.00 0.00 84 1013.9
20260830101952 70 199 2.0 2.0 0.00 0.00 0.00 84 1014.0
20260830101447 70 223 5.0 6.0 0.00 0.00 0.00 84 1013.8
20260830100947 70 205 2.0 2.0 0.00 0.00 0.00 84 1014.0
20260830100446 70 220 2.0 2.0 0.00 0.00 0.00 84 1013.9
20260830095944 70 205 1.0 2.0 0.00 0.00 0.00 84 1013.8
20260830095441 70 196 4.0 5.0 0.00 0.00 0.00 84 1013.9
20260830094937 70 177 4.0 5.0 0.00 0.00 0.00 84 1013.9
20260830094433 70 217 1.0 2.0 0.00 0.00 0.00 84 1013.8
20260830093928 71 199 3.0 3.0 0.00 0.00 0.00 83 1013.8
20260830093423 71 184 3.0 3.0 0.00 0.00 0.00 83 1013.8
20260830092919 71 216 3.0 5.0 0.00 0.00 0.00 83 1013.8
20260830092409 71 206 3.0 3.0 0.00 0.00 0.00 83 1013.7
20260830091905 71 196 1.0 2.0 0.00 0.00 0.00 83 1013.6
20260830091400 71 207 3.0 3.0 0.00 0.00 0.00 83 1013.7
20260830090858 71 177 5.0 6.0 0.00 0.00 0.00 83 1013.7
20260830090354 71 209 2.0 2.0 0.00 0.00 0.00 83 1013.7
20260830085854 71 198 2.0 2.0 0.00 0.00 0.00 83 1013.5
20260830085349 71 206 3.0 3.0 0.00 0.00 0.00 83 1013.5
20260830084845 71 206 4.0 6.0 0.00 0.00 0.00 82 1013.6
20260830084340 71 178 5.0 7.0 0.00 0.00 0.00 82 1013.5
20260830083835 71 198 3.0 3.0 0.00 0.00 0.00 83 1013.7
20260830083331 71 181 6.0 7.0 0.00 0.00 0.00 82 1013.8
20260830082830 71 198 5.0 6.0 0.00 0.00 0.00 82 1013.8
20260830082326 71 191 5.0 6.0 0.00 0.00 0.00 82 1013.7
20260830081821 71 184 5.0 6.0 0.00 0.00 0.00 82 1013.7
20260830081320 71 217 2.0 2.0 0.00 0.00 0.00 82 1013.8
20260830080815 71 176 7.0 9.0 0.00 0.00 0.00 82 1013.7
20260830080312 72 184 4.0 5.0 0.00 0.00 0.00 81 1013.8
20260830075811 72 211 5.0 6.0 0.00 0.00 0.00 81 1013.6
20260830075307 72 207 2.0 2.0 0.00 0.00 0.00 81 1013.7
20260830074801 72 213 3.0 6.0 0.00 0.00 0.00 80 1013.7
20260830074257 72 197 3.0 5.0 0.00 0.00 0.00 80 1013.7
20260830073753 73 200 3.0 3.0 0.00 0.00 0.00 80 1013.9
20260830073248 72 191 3.0 5.0 0.00 0.00 0.00 80 1013.7
20260830072742 72 203 3.0 3.0 0.00 0.00 0.00 80 1014.0
20260830072238 73 198 4.0 5.0 0.00 0.00 0.00 79 1014.0
20260830071732 73 185 3.0 5.0 0.00 0.00 0.00 79 1014.0
20260830071232 73 209 4.0 5.0 0.00 0.00 0.00 79 1013.8
20260830070731 73 202 2.0 2.0 0.00 0.00 0.00 79 1013.9
20260830070226 73 205 3.0 3.0 0.00 0.00 0.00 79 1013.8
20260830065725 73 200 5.0 7.0 0.00 0.00 0.00 78 1013.9
20260830065220 73 184 3.0 3.0 0.00 0.00 0.00 78 1014.1
20260830064718 73 195 5.0 8.0 0.00 0.00 0.00 78 1014.2
20260830064214 73 222 3.0 3.0 0.00 0.00 0.00 78 1014.1
20260830063708 73 211 5.0 7.0 0.00 0.00 0.00 78 1014.2
20260830063207 73 194 3.0 3.0 0.00 0.00 0.00 78 1014.2
20260830062702 74 199 3.0 3.0 0.00 0.00 0.00 77 1014.5
20260830062157 74 155 5.0 6.0 0.00 0.00 0.00 77 1014.4
20260830061656 74 223 3.0 3.0 0.00 0.00 0.00 77 1014.4
20260830061152 74 206 3.0 3.0 0.00 0.00 0.00 76 1014.4
20260830060649 74 190 5.0 8.0 0.00 0.00 0.00 76 1014.3
20260830060145 74 219 5.0 7.0 0.00 0.00 0.00 75 1014.4
20260830055640 74 187 3.0 3.0 0.00 0.00 0.00 75 1014.3
20260830055137 75 250 3.0 3.0 0.00 0.00 0.00 75 1014.3
20260830054631 75 147 3.0 5.0 0.00 0.00 0.00 74 1014.4
20260830054127 75 212 5.0 6.0 0.00 0.00 0.00 74 1014.5
20260830053622 75 189 3.0 5.0 0.00 0.00 0.00 73 1014.4
20260830053122 75 184 5.0 6.0 0.00 0.00 0.00 73 1014.2
20260830052617 75 229 7.0 9.0 0.00 0.00 0.00 73 1014.3
20260830052112 76 205 5.0 9.0 0.00 0.00 0.00 72 1014.4
20260830051607 76 247 3.0 5.0 0.00 0.00 0.00 72 1014.4
20260830051103 76 192 3.0 5.0 0.00 0.00 0.00 71 1014.5
20260830050601 76 225 4.0 5.0 0.00 0.00 0.00 71 1014.3
20260830050056 76 190 2.0 2.0 0.00 0.00 0.00 72 1014.2
20260830045555 76 210 4.0 5.0 0.00 0.00 0.00 71 1014.2
20260830045050 76 235 7.0 8.0 0.00 0.00 0.00 71 1014.4
20260830044544 76 211 8.0 9.0 0.00 0.00 0.00 71 1014.4
20260830044039 76 203 8.0 10.0 0.00 0.00 0.00 71 1014.2
20260830043535 76 182 12.0 15.0 0.00 0.00 0.00 71 1014.4
20260830043033 76 250 4.0 5.0 0.00 0.00 0.00 72 1014.2
20260830042531 76 199 6.0 9.0 0.00 0.00 0.00 72 1014.3
20260830042026 76 199 7.0 9.0 0.00 0.00 0.00 72 1014.2
20260830041525 77 177 10.0 13.0 0.00 0.00 0.00 73 1014.3
20260830041020 77 174 10.0 15.0 0.00 0.00 0.00 72 1014.3
20260830040515 77 186 8.0 9.0 0.00 0.00 0.00 73 1014.4